Weather History for Pian Rosa, Italy

Change the Weather History Date:

Monday, April 22, 2013

  Actual Average Record
Temperature  
Mean Temperature 18 °F -  
Max Temperature 21 °F 27 °F 57 °F (2008)
Min Temperature 15 °F 16 °F 6 °F (2012)
Degree Days  
Heating Degree Days 47    
Moisture  
Dew Point 14 °F    
Average Humidity 86    
Maximum Humidity 100    
Minimum Humidity 65    
Precipitation  
Precipitation 0.00 in - - ()
Sea Level Pressure  
Sea Level Pressure 29.95 in    
Wind  
Wind Speed 10 mph ()    
Max Wind Speed 23 mph    
Max Gust Speed -    
Visibility 3.5 miles    
Events Fog , Snow    
Averages and records for this station are not official NWS values.
T = Trace of Precipitation, MM = Missing Value Source: Averaged Metar Reports

Daily Weather History Graph

Daily Weather History Graph

Search for Another Location

Airport:

Trip Planner

Search our weather history database for the weather conditions in past years. The results will help you decide how hot, cold, wet, or windy it might be!

Date:

Astronomy

Apr. 22, 2013 Rise Set
Actual Time 6:30 AM CEST 8:25 PM CEST
Civil Twilight 5:58 AM CEST 8:57 PM CEST
Nautical Twilight 5:19 AM CEST 9:36 PM CEST
Astronomical Twilight 4:36 AM CEST 10:20 PM CEST
Moon 4:46 PM CEST (4/22) 4:28 AM CEST (4/22)
Length of Visible Light 14h 58m
Length of Day
13h 54m
Waxing Gibbous, 86% of the Moon is Illuminated
Apr 22
Waxing Gibbous
Apr 25
Full
May 2
Last Quarter
May 10
New
May 18
First Quarter

Hourly Weather History & Observations

Time (CEST) Temp. Windchill Dew Point Humidity Pressure Visibility Wind Dir Wind Speed Gust Speed Precip Events Conditions
12:55 AM 15.8 °F 4.2 °F 15.8 °F 100% 29.98 in 0.2 mi NE 9.2 mph - N/A Fog , Snow Light Snow
1:55 AM 15.8 °F 5.1 °F 14.0 °F 93% 29.98 in 0.5 mi ENE 8.1 mph - N/A Fog Light Freezing Fog
2:00 AM 17 °F - 15 °F 87%  in 0 mi ENE 8.1 mph - - Fog Heavy Fog
2:55 AM 15.8 °F 2.1 °F 14.0 °F 93% 29.98 in 0.5 mi NE 12.7 mph - N/A Fog Light Freezing Fog
3:55 AM 15.8 °F -0.2 °F 14.0 °F 93% 29.95 in 0.5 mi ENE 17.3 mph - N/A Fog Light Freezing Fog
4:55 AM 15.8 °F 2.7 °F 14.0 °F 93% 29.92 in 6.2 mi ENE 11.5 mph - N/A   Partly Cloudy
5:00 AM 16 °F - 13 °F 85%  in 7 mi ENE 11.5 mph - - Fog Light Fog
5:55 AM 15.8 °F 1.4 °F 12.2 °F 86% 29.89 in - ENE 13.8 mph - N/A   Clear
6:55 AM 15.8 °F 4.2 °F 12.2 °F 86% 29.89 in - East 9.2 mph - N/A   Clear
7:55 AM 15.8 °F 3.4 °F 12.2 °F 86% 29.89 in 6.2 mi ENE 10.4 mph - N/A   Partly Cloudy
8:00 AM 17 °F - 11 °F 70%  in 19 mi ENE 10.4 mph - -   Partly Cloudy
8:55 AM 17.6 °F 6.4 °F 10.4 °F 73% 29.92 in 6.2 mi East 9.2 mph - N/A   Partly Cloudy
9:55 AM 17.6 °F 8.2 °F 12.2 °F 79% 29.92 in 6.2 mi ENE 6.9 mph - N/A   Scattered Clouds
10:55 AM 19.4 °F 7.9 °F 12.2 °F 74% 29.92 in 6.2 mi ENE 10.4 mph - N/A   Scattered Clouds
11:00 AM 19 °F - 12 °F 65%  in 25 mi ENE 10.4 mph - -   Partly Cloudy
11:55 AM 19.4 °F 8.6 °F 15.8 °F 86% 29.95 in 6.2 mi ENE 9.2 mph - N/A   Scattered Clouds
12:55 PM 21.2 °F 16.4 °F 15.8 °F 80% 29.95 in 3.7 mi NNE 3.5 mph - N/A   Scattered Clouds
1:55 PM 19.4 °F 8.6 °F 14.0 °F 80% 29.95 in 6.2 mi ENE 9.2 mph - N/A   Scattered Clouds
2:00 PM 20 °F - 14 °F 70%  in 12 mi ENE 9.2 mph - -   Partly Cloudy
2:55 PM 19.4 °F 7.9 °F 14.0 °F 80% 29.95 in 6.2 mi NE 10.4 mph - N/A   Scattered Clouds
3:55 PM 19.4 °F 8.6 °F 12.2 °F 74% 29.95 in 6.2 mi ENE 9.2 mph - N/A   Scattered Clouds
4:55 PM 17.6 °F 3.2 °F 15.8 °F 93% 29.95 in 0.1 mi NE 15.0 mph - N/A Fog Light Freezing Fog
5:00 PM 17 °F - 15 °F 89%  in 0 mi NE 15.0 mph - - Fog Heavy Fog
5:55 PM 17.6 °F 3.2 °F 15.8 °F 93% 29.95 in 0.1 mi NE 15.0 mph - N/A Fog Light Freezing Fog
6:55 PM 17.6 °F 0.5 °F 15.8 °F 93% 29.95 in 0.5 mi ENE 21.9 mph - N/A Fog Light Freezing Fog
7:55 PM 17.6 °F 0.1 °F 15.8 °F 93% 29.98 in 0.1 mi ENE 23.0 mph - N/A Fog Light Freezing Fog
8:00 PM 17 °F - 16 °F 94%  in 0 mi ENE 23.0 mph - - Fog Heavy Fog
8:55 PM 17.6 °F 0.9 °F 15.8 °F 93% 29.95 in 0.1 mi ENE 20.7 mph - N/A Fog Light Freezing Fog
9:55 PM 17.6 °F 5.0 °F 15.8 °F 93% 30.01 in 0.5 mi ENE 11.5 mph - N/A Fog Light Freezing Fog
10:55 PM 17.6 °F 5.0 °F 15.8 °F 93% 30.04 in 0.5 mi ENE 11.5 mph - N/A Fog Light Freezing Fog
11:00 PM 17 °F - 16 °F 94%  in 0 mi ENE 11.5 mph - - Fog Heavy Fog
11:55 PM 17.6 °F 3.7 °F 15.8 °F 93% 30.04 in 0.5 mi ENE 13.8 mph - N/A Fog Light Freezing Fog